| time (UTC) | temp C | wind direction | speed KPH | gust KPH | rain 1hr cm | rain 24hr cm | rain mn cm | humidity % | barometer mb |
| 20260503214528 | 17 | 345 | 8.0 | 14.5 | 0.00 | 0.00 | 0.00 | 22 | 1014.0 |
| 20260503213526 | 17 | 4 | 11.3 | 19.3 | 0.00 | 0.00 | 0.00 | 22 | 1014.1 |
| 20260503212523 | 17 | 313 | 11.3 | 20.9 | 0.00 | 0.00 | 0.00 | 22 | 1014.0 |
| 20260503211521 | 17 | 316 | 11.3 | 25.7 | 0.00 | 0.00 | 0.00 | 23 | 1014.0 |
| 20260503210519 | 17 | 261 | 11.3 | 24.1 | 0.00 | 0.00 | 0.00 | 24 | 1013.9 |
| 20260503205516 | 17 | 322 | 9.7 | 19.3 | 0.00 | 0.00 | 0.00 | 22 | 1014.0 |
| 20260503204549 | 17 | 299 | 8.0 | 22.5 | 0.00 | 0.00 | 0.00 | 23 | 1014.1 |
| 20260503203527 | 17 | 323 | 6.4 | 20.9 | 0.00 | 0.00 | 0.00 | 23 | 1014.1 |
| 20260503202545 | 17 | 291 | 9.7 | 17.7 | 0.00 | 0.00 | 0.00 | 23 | 1014.2 |
| 20260503201523 | 16 | 328 | 8.0 | 14.5 | 0.00 | 0.00 | 0.00 | 24 | 1014.4 |
| 20260503200520 | 16 | 257 | 6.4 | 16.1 | 0.00 | 0.00 | 0.00 | 22 | 1014.4 |
| 20260503195518 | 16 | 7 | 6.4 | 12.9 | 0.00 | 0.00 | 0.00 | 23 | 1014.6 |
| 20260503194551 | 16 | 337 | 11.3 | 20.9 | 0.00 | 0.00 | 0.00 | 24 | 1014.8 |
| 20260503193529 | 16 | 323 | 12.9 | 20.9 | 0.00 | 0.00 | 0.00 | 24 | 1015.0 |
| 20260503192526 | 16 | 320 | 8.0 | 16.1 | 0.00 | 0.00 | 0.00 | 23 | 1015.1 |
| 20260503191545 | 16 | 322 | 11.3 | 17.7 | 0.00 | 0.00 | 0.00 | 23 | 1015.3 |
| 20260503190523 | 15 | 349 | 6.4 | 20.9 | 0.00 | 0.00 | 0.00 | 24 | 1015.5 |
| 20260503185519 | 15 | 300 | 12.9 | 22.5 | 0.00 | 0.00 | 0.00 | 25 | 1015.6 |
| 20260503184517 | 15 | 2 | 12.9 | 24.1 | 0.00 | 0.00 | 0.00 | 24 | 1015.7 |
| 20260503183531 | 15 | 2 | 12.9 | 22.5 | 0.00 | 0.00 | 0.00 | 25 | 1015.9 |
| 20260503182528 | 15 | 341 | 14.5 | 30.6 | 0.00 | 0.00 | 0.00 | 25 | 1015.8 |
| 20260503181526 | 15 | 312 | 9.7 | 17.7 | 0.00 | 0.00 | 0.00 | 27 | 1015.8 |
| 20260503180523 | 15 | 324 | 9.7 | 20.9 | 0.00 | 0.00 | 0.00 | 26 | 1015.9 |
| 20260503175521 | 14 | 319 | 9.7 | 20.9 | 0.00 | 0.00 | 0.00 | 27 | 1016.1 |
| 20260503174519 | 14 | 325 | 9.7 | 20.9 | 0.00 | 0.00 | 0.00 | 28 | 1016.0 |
| 20260503173517 | 13 | 318 | 9.7 | 14.5 | 0.00 | 0.00 | 0.00 | 30 | 1016.1 |
| 20260503172529 | 13 | 342 | 9.7 | 19.3 | 0.00 | 0.00 | 0.00 | 30 | 1016.3 |
| 20260503171547 | 13 | 354 | 11.3 | 19.3 | 0.00 | 0.00 | 0.00 | 29 | 1016.5 |
| 20260503170525 | 13 | 292 | 9.7 | 19.3 | 0.00 | 0.00 | 0.00 | 30 | 1016.5 |
| 20260503150527 | 12 | 298 | 12.9 | 29.0 | 0.00 | 0.00 | 0.00 | 33 | 1017.6 |
| 20260503130530 | 8 | 351 | 8.0 | 17.7 | 0.00 | 0.00 | 0.00 | 45 | 1017.9 |
| 20260503110517 | 3 | 31 | 1.6 | 3.2 | 0.00 | 0.00 | 0.00 | 72 | 1016.9 |
| 20260503081521 | 6 | 353 | 3.2 | 6.4 | 0.00 | 0.00 | 0.00 | 60 | 1015.6 |
| 20260503080519 | 6 | 341 | 6.4 | 12.9 | 0.00 | 0.00 | 0.00 | 60 | 1015.5 |
| 20260503072545 | 6 | 339 | 3.2 | 4.8 | 0.00 | 0.00 | 0.00 | 59 | 1015.2 |
| 20260503071522 | 6 | 355 | 3.2 | 6.4 | 0.00 | 0.00 | 0.00 | 58 | 1015.2 |
| 20260503070520 | 6 | 358 | 4.8 | 9.7 | 0.00 | 0.00 | 0.00 | 57 | 1015.0 |
| 20260503054516 | 6 | 8 | 4.8 | 9.7 | 0.00 | 0.00 | 0.00 | 58 | 1014.8 |
| 20260503053529 | 6 | 6 | 8.0 | 12.9 | 0.00 | 0.00 | 0.00 | 60 | 1014.7 |
| 20260503052527 | 5 | 12 | 6.4 | 12.9 | 0.00 | 0.00 | 0.00 | 68 | 1014.7 |
| 20260503051524 | 3 | 101 | 1.6 | 4.8 | 0.00 | 0.00 | 0.00 | 74 | 1014.8 |
| 20260503050522 | 4 | 339 | 3.2 | 6.4 | 0.00 | 0.00 | 0.00 | 72 | 1014.7 |
| 20260503045520 | 5 | 347 | 1.6 | 3.2 | 0.00 | 0.00 | 0.00 | 68 | 1014.8 |
| 20260503044518 | 5 | 150 | 1.6 | 4.8 | 0.00 | 0.00 | 0.00 | 65 | 1014.9 |
| 20260503043530 | 5 | 197 | 3.2 | 6.4 | 0.00 | 0.00 | 0.00 | 66 | 1014.8 |
| 20260503042528 | 5 | 354 | 1.6 | 3.2 | 0.00 | 0.00 | 0.00 | 67 | 1014.8 |
| 20260503041546 | 4 | 333 | 1.6 | 3.2 | 0.00 | 0.00 | 0.00 | 67 | 1014.8 |
| 20260503040523 | 5 | 353 | 3.2 | 3.2 | 0.00 | 0.00 | 0.00 | 66 | 1014.8 |
| 20260503035521 | 5 | 19 | 1.6 | 3.2 | 0.00 | 0.00 | 0.00 | 64 | 1014.9 |
| 20260503034518 | 6 | 4 | 3.2 | 4.8 | 0.00 | 0.00 | 0.00 | 63 | 1014.8 |
| 20260503033516 | 6 | 7 | 1.6 | 3.2 | 0.00 | 0.00 | 0.00 | 59 | 1014.8 |
| 20260503032529 | 7 | 10 | 3.2 | 3.2 | 0.00 | 0.00 | 0.00 | 57 | 1014.9 |
| 20260503031547 | 7 | 352 | 1.6 | 3.2 | 0.00 | 0.00 | 0.00 | 56 | 1014.9 |
| 20260503030525 | 8 | 5 | 1.6 | 3.2 | 0.00 | 0.00 | 0.00 | 52 | 1014.8 |
| 20260503025522 | 8 | 17 | 4.8 | 6.4 | 0.00 | 0.00 | 0.00 | 50 | 1014.9 |
| 20260503024520 | 8 | 21 | 4.8 | 9.7 | 0.00 | 0.00 | 0.00 | 48 | 1014.8 |
| 20260503023518 | 9 | 17 | 9.7 | 16.1 | 0.00 | 0.00 | 0.00 | 47 | 1014.7 |
| 20260503022532 | 9 | 10 | 9.7 | 17.7 | 0.00 | 0.00 | 0.00 | 47 | 1014.8 |
| 20260503021529 | 10 | 12 | 8.0 | 16.1 | 0.00 | 0.00 | 0.00 | 46 | 1014.7 |
| 20260503020546 | 10 | 4 | 9.7 | 16.1 | 0.00 | 0.00 | 0.00 | 45 | 1014.6 |
| 20260503015524 | 10 | 3 | 8.0 | 14.5 | 0.00 | 0.00 | 0.00 | 44 | 1014.6 |
| 20260503014521 | 10 | 1 | 9.7 | 17.7 | 0.00 | 0.00 | 0.00 | 43 | 1014.5 |
| 20260503013519 | 10 | 12 | 6.4 | 9.7 | 0.00 | 0.00 | 0.00 | 44 | 1014.3 |
| 20260503012517 | 10 | 26 | 8.0 | 17.7 | 0.00 | 0.00 | 0.00 | 43 | 1014.1 |
| 20260503011550 | 11 | 22 | 6.4 | 9.7 | 0.00 | 0.00 | 0.00 | 43 | 1014.0 |
| 20260503010528 | 11 | 13 | 6.4 | 11.3 | 0.00 | 0.00 | 0.00 | 42 | 1013.9 |
| 20260503005605 | 11 | 25 | 8.0 | 14.5 | 0.00 | 0.00 | 0.00 | 42 | 1013.7 |
| 20260503004543 | 11 | 8 | 6.4 | 9.7 | 0.00 | 0.00 | 0.00 | 42 | 1013.5 |
| 20260503003521 | 11 | 11 | 6.4 | 14.5 | 0.00 | 0.00 | 0.00 | 41 | 1013.2 |
| 20260503002519 | 11 | 15 | 4.8 | 9.7 | 0.00 | 0.00 | 0.00 | 41 | 1013.1 |
| 20260503001517 | 11 | 23 | 6.4 | 11.3 | 0.00 | 0.00 | 0.00 | 39 | 1012.9 |
| 20260503000529 | 12 | 24 | 6.4 | 12.9 | 0.00 | 0.00 | 0.00 | 38 | 1012.8 |
| 20260502235547 | 12 | 13 | 9.7 | 17.7 | 0.00 | 0.00 | 0.00 | 36 | 1012.7 |
| 20260502234524 | 12 | 27 | 8.0 | 17.7 | 0.00 | 0.00 | 0.00 | 36 | 1012.5 |
| 20260502233522 | 12 | 14 | 8.0 | 17.7 | 0.00 | 0.00 | 0.00 | 35 | 1012.4 |
| 20260502232540 | 12 | 6 | 8.0 | 17.7 | 0.00 | 0.00 | 0.00 | 35 | 1012.4 |
| 20260502231558 | 12 | 1 | 9.7 | 19.3 | 0.00 | 0.00 | 0.00 | 34 | 1012.3 |
| 20260502230531 | 13 | 23 | 9.7 | 19.3 | 0.00 | 0.00 | 0.00 | 33 | 1012.2 |
| 20260502225528 | 13 | 12 | 8.0 | 11.3 | 0.00 | 0.00 | 0.00 | 33 | 1012.1 |
| 20260502224526 | 13 | 352 | 9.7 | 19.3 | 0.00 | 0.00 | 0.00 | 32 | 1012.0 |
| 20260502223524 | 13 | 1 | 6.4 | 11.3 | 0.00 | 0.00 | 0.00 | 33 | 1012.0 |
| 20260502222521 | 13 | 18 | 8.0 | 17.7 | 0.00 | 0.00 | 0.00 | 32 | 1012.0 |
| 20260502221519 | 13 | 12 | 9.7 | 19.3 | 0.00 | 0.00 | 0.00 | 32 | 1011.9 |
| 20260502220516 | 13 | 7 | 8.0 | 14.5 | 0.00 | 0.00 | 0.00 | 33 | 1011.9 |
| 20260502215549 | 13 | 24 | 8.0 | 16.1 | 0.00 | 0.00 | 0.00 | 33 | 1011.7 |